#timestamp,LO_Frequency,Hit,StdDev 
1516233615.6,286047002.0,N
1516233635.4,286047004.1,N
1516233655.3,286047002.8,N
1516233675.1,286047002.1,N
1516233676.0,286047002.1,N
1516233695.8,286047000.1,N
1516233715.7,286046998.1,N
1516233735.5,286046999.3,N
1516233755.3,286046998.5,N
1516233775.2,286046999.1,N
1516233795.0,286046999.0,N
1516233795.9,286046999.0,N
1516233815.8,286046996.8,N
1516233835.6,286046996.8,N
1516233855.4,286046999.0,N
1516233875.3,286046999.6,N
1516233895.1,286046997.0,N
1516233915.9,286046997.7,N
1516233935.7,286046995.0,N
1516233955.5,286046997.7,N
1516233975.4,286046994.9,N
1516233995.2,286046997.4,N
1516234015.1,286046997.1,N
1516234016.0,286047011.9,Y
1516234035.8,286046999.6,P
1516234055.6,286046999.5,P
1516234075.5,286046999.2,P
1516234095.3,286046999.1,Y
1516234115.2,286047005.4,P
1516234135.9,286047007.2,N
1516234155.7,286047004.9,N
1516234175.6,286047002.9,N
1516234195.4,286047003.1,N
1516234215.2,286047005.1,N
1516234235.1,286047003.5,N
1516234236.0,286047003.5,N
1516234255.8,286047004.4,N
1516234275.7,286047002.0,N
1516234295.5,286046998.3,N
1516234315.3,286046998.9,N
1516234335.2,286046999.1,N
1516234355.0,286046996.5,N
1516234355.9,286046996.5,N
1516234375.8,286046999.5,N
1516234395.6,286046999.4,N
1516234415.4,286046999.4,N
1516234435.3,286046999.0,N
1516234455.1,286046998.3,N
1516234475.8,286046999.8,N
1516234495.7,286047000.2,N
1516234515.5,286047001.9,N
1516234535.4,286047000.0,N
1516234555.2,286047001.0,N
1516234575.0,286046998.8,N
1516234575.9,286046998.8,N
1516234595.8,286047002.1,N
1516234615.6,286047004.1,N
1516234635.4,286047001.5,N
1516234655.3,286047003.7,N
1516234675.1,286047004.3,N
1516234695.9,286047001.5,N
1516234715.7,286047000.2,N
1516234735.5,286047002.3,N
1516234755.4,286047001.7,N
1516234775.2,286047002.5,N
1516234795.0,286047002.4,N
1516234795.9,286047002.4,N
1516234815.8,286047002.5,N
1516234835.6,286046999.9,N
1516234855.5,286047002.4,N
1516234875.3,286047001.6,N
1516234895.1,286047001.7,N
1516234915.9,286047002.0,N
1516234935.7,286047001.7,N
1516234955.5,286047002.4,N
1516234975.4,286047002.8,N
1516234995.2,286046998.9,N
1516235015.1,286047000.6,N
1516235016.0,286047000.6,N
1516235035.8,286047000.0,N
1516235055.6,286047001.1,N
1516235075.5,286047001.9,N
1516235095.3,286047001.5,N
1516235115.2,286047006.0,Y
1516235135.9,286047003.7,P
1516235155.7,286047002.8,N
1516235175.6,286047000.1,N
1516235195.4,286046998.4,N
1516235215.2,286047000.8,N
1516235235.1,286046998.7,N
1516235236.0,286046998.7,N
1516235255.8,286046998.6,N
1516235275.7,286046999.3,N
1516235295.5,286047004.3,N
1516235315.3,286047003.6,N
1516235335.2,286047002.3,N
1516235355.0,286047002.4,N
1516235355.9,286047002.4,N
1516235375.7,286046999.8,N
1516235395.6,286047000.3,N
1516235415.4,286047000.8,N
1516235435.3,286047000.6,N
1516235455.1,286047000.3,N
1516235475.8,286046999.8,N
1516235495.7,286047004.3,N
1516235515.5,286047003.8,N
1516235535.4,286047003.9,N
1516235555.2,286047001.6,N
1516235575.0,286047000.2,N
1516235575.9,286047000.2,N
1516235595.8,286046998.5,N
1516235615.6,286046997.2,N
1516235635.4,286046997.1,N
1516235655.3,286046997.1,N
1516235675.1,286046996.7,N
1516235695.9,286046997.4,N
1516235715.7,286046998.7,N
1516235735.5,286046998.7,N
1516235755.4,286046998.8,N
1516235775.2,286046998.1,N
1516235795.1,286046998.8,N
1516235796.0,286046998.8,N
1516235815.8,286046999.4,N
1516235835.6,286046996.8,N
1516235855.5,286046999.5,N
1516235875.3,286046999.0,N
1516235895.1,286046999.6,N
1516235915.9,286046999.4,N
1516235935.7,286046998.6,N
1516235955.6,286047001.0,N
1516235975.4,286046998.1,N
1516235995.2,286047000.8,N
1516236015.1,286047001.0,N
1516236016.0,286047001.0,N
1516236035.8,286047001.2,N
1516236055.7,286046998.2,N
1516236075.5,286047001.1,N
1516236095.3,286046998.8,N
1516236115.2,286046997.3,N
1516236135.9,286046998.6,N
1516236155.7,286047001.0,N
1516236175.6,286047000.6,N
1516236195.4,286047000.9,N
1516236215.3,286047000.6,N
1516236235.1,286047000.6,N
1516236236.0,286047000.6,N
1516236255.8,286047000.5,N
1516236275.7,286047003.1,N
1516236295.5,286047006.0,Y
1516236315.3,286047002.9,P
1516236335.2,286047004.6,N
1516236355.0,286047005.3,N
1516236355.9,286047005.3,N
1516236375.8,286047004.9,N
1516236395.6,286047003.4,N
1516236415.4,286047003.3,N
1516236435.3,286047002.5,N
1516236455.1,286047002.0,N
1516236475.9,286047002.8,N
1516236495.7,286046999.8,N
1516236515.5,286047002.6,N
1516236535.4,286047002.3,N
1516236555.2,286047001.5,N
1516236575.1,286047002.7,N
1516236576.0,286047002.7,N
1516236595.8,286047000.5,N
1516236615.6,286047001.9,N
1516236635.5,286047002.4,N
1516236655.3,286047000.7,N
1516236675.1,286047000.0,N
1516236695.9,286047001.5,N
1516236715.7,286047001.9,N
1516236735.6,286047006.0,Y
1516236755.4,286047001.4,P
1516236775.2,286047001.7,P
1516236795.1,286047001.3,P
1516236796.0,286047001.3,N
1516236815.8,286047004.1,Y
1516236835.7,286047000.4,P
1516236855.5,286047000.9,N
1516236875.3,286047001.2,N
1516236895.2,286046999.3,N
1516236915.0,286046996.6,Y
1516236915.9,286046996.6,P
1516236935.8,286046994.9,N
1516236955.6,286046995.7,N
1516236975.4,286046995.0,N
1516236995.3,286046995.6,N
1516237015.1,286046996.4,N
1516237035.8,286046995.5,N
1516237055.7,286046995.2,N
1516237075.5,286046997.4,N
1516237095.4,286046997.4,N
1516237115.2,286046999.6,N
1516237135.0,286046996.7,N
1516237135.9,286046996.7,N
1516237155.8,286046997.3,N
1516237175.6,286046997.2,N
1516237195.5,286046997.2,N
